Time,TemperatureF,DewpointF,PressureIn,WindDirection,WindDirectionDegrees,WindSpeedMPH,WindSpeedGustMPH,Humidity,HourlyPrecipIn,Conditions,Clouds,dailyrainin,SoftwareType,DateUTC
2013-10-23 00:22:00,53.0,53.0,29.68,South,175,13.0,21.0,100,0.01,,,0.02,,2013-10-23 03:22:00,
2013-10-23 00:55:00,52.0,52.0,29.66,South,181,12.0,18.0,100,0.01,,,0.04,,2013-10-23 03:55:00,
2013-10-23 01:14:00,52.0,52.0,29.66,South,175,12.0,20.0,100,0.02,,,0.05,,2013-10-23 04:14:00,
2013-10-23 01:24:00,52.0,52.0,29.65,South,175,12.0,20.0,100,0.05,,,0.07,,2013-10-23 04:24:00,
2013-10-23 01:55:00,52.0,52.0,29.64,South,172,12.0,21.0,100,0.05,,,0.09,,2013-10-23 04:55:00,
2013-10-23 02:23:00,52.0,52.0,29.62,South,174,12.0,20.0,100,0.05,,,0.12,,2013-10-23 05:23:00,
2013-10-23 02:53:00,52.0,52.0,29.64,SSW,211,8.0,22.0,100,0.16,,,0.24,,2013-10-23 05:53:00,
2013-10-23 03:22:00,52.0,52.0,29.64,SW,232,1.0,3.0,100,0.17,,,0.28,,2013-10-23 06:22:00,
2013-10-23 03:52:00,52.0,52.0,29.61,SW,232,0.0,0.0,100,0.05,,,0.29,,2013-10-23 06:52:00,
2013-10-23 04:22:00,51.0,51.0,29.62,SW,232,0.0,2.0,100,0.04,,,0.32,,2013-10-23 07:22:00,
2013-10-23 04:52:00,51.0,51.0,29.62,SW,232,0.0,0.0,100,0.05,,,0.34,,2013-10-23 07:52:00,
2013-10-23 05:22:00,51.0,51.0,29.62,SW,232,0.0,2.0,100,0.03,,,0.35,,2013-10-23 08:22:00,
2013-10-23 05:53:00,48.0,48.0,29.62,NW,321,3.0,12.0,100,0.01,,,0.35,,2013-10-23 08:53:00,
2013-10-23 06:22:00,47.0,47.0,29.62,NNW,327,2.0,6.0,100,0.00,,,0.35,,2013-10-23 09:22:00,
2013-10-23 06:53:00,46.0,46.0,29.62,NNW,328,3.0,5.0,100,0.00,,,0.35,,2013-10-23 09:53:00,
2013-10-23 07:23:00,44.0,44.0,29.63,NNW,333,2.0,3.0,100,0.00,,,0.35,,2013-10-23 10:23:00,
2013-10-23 07:53:00,43.0,43.0,29.63,NNW,331,3.0,6.0,100,0.00,,,0.35,,2013-10-23 10:53:00,
2013-10-23 08:22:00,43.0,43.0,29.64,NW,322,0.0,3.0,100,0.00,,,0.35,,2013-10-23 11:22:00,
2013-10-23 08:52:00,43.0,43.0,29.65,NW,323,0.0,1.0,100,0.00,,,0.35,,2013-10-23 11:52:00,
2013-10-23 09:22:00,44.0,44.0,29.66,NW,323,2.0,3.0,100,0.00,,,0.35,,2013-10-23 12:22:00,
2013-10-23 09:52:00,46.0,46.0,29.66,NNW,330,2.0,5.0,100,0.00,,,0.35,,2013-10-23 12:52:00,
2013-10-23 10:22:00,46.0,46.0,29.65,NNW,328,3.0,6.0,100,0.01,,,0.36,,2013-10-23 13:22:00,
2013-10-23 10:52:00,48.0,48.0,29.67,NW,321,2.0,5.0,100,0.01,,,0.36,,2013-10-23 13:52:00,
2013-10-23 11:22:00,49.0,48.0,29.66,NW,324,3.0,6.0,96,0.00,,,0.36,,2013-10-23 14:22:00,
2013-10-23 11:52:00,50.0,47.0,29.66,NNW,328,1.0,6.0,88,0.00,,,0.36,,2013-10-23 14:52:00,
2013-10-23 12:22:00,51.0,45.0,29.65,NNE,14,2.0,6.0,81,0.00,,,0.36,,2013-10-23 15:22:00,
2013-10-23 12:43:00,52.0,46.0,29.65,NNW,347,1.0,3.0,79,0.00,,,0.36,,2013-10-23 15:43:00,
2013-10-23 12:53:00,52.0,45.0,29.64,NW,309,2.0,3.0,78,0.00,,,0.36,,2013-10-23 15:53:00,
2013-10-23 13:23:00,52.0,44.0,29.63,WSW,254,1.0,3.0,75,0.00,,,0.36,,2013-10-23 16:23:00,
2013-10-23 13:53:00,53.0,45.0,29.62,SSW,194,5.0,6.0,73,0.00,,,0.36,,2013-10-23 16:53:00,
2013-10-23 14:23:00,54.0,46.0,29.61,South,173,5.0,9.0,73,0.00,,,0.36,,2013-10-23 17:23:00,
2013-10-23 14:52:00,54.0,46.0,29.60,SW,218,5.0,8.0,73,0.00,,,0.36,,2013-10-23 17:52:00,
2013-10-23 15:22:00,53.0,43.0,29.58,SSW,198,6.0,9.0,69,0.00,,,0.36,,2013-10-23 18:22:00,
2013-10-23 15:52:00,53.0,44.0,29.57,SSW,213,1.0,9.0,71,0.00,,,0.36,,2013-10-23 18:52:00,
2013-10-23 16:12:00,52.0,43.0,29.57,SSW,212,1.0,6.0,71,0.00,,,0.36,,2013-10-23 19:12:00,
2013-10-23 16:22:00,52.0,43.0,29.57,SW,229,1.0,8.0,70,0.00,,,0.36,,2013-10-23 19:22:00,
2013-10-23 16:53:00,51.0,41.0,29.57,SW,229,1.0,7.0,69,0.00,,,0.36,,2013-10-23 19:53:00,
2013-10-23 17:22:00,50.0,39.0,29.57,SW,228,0.0,3.0,67,0.00,,,0.36,,2013-10-23 20:22:00,
2013-10-23 17:52:00,48.0,39.0,29.55,SW,228,0.0,3.0,70,0.00,,,0.36,,2013-10-23 20:52:00,
2013-10-23 18:22:00,46.0,38.0,29.54,NNE,15,3.0,7.0,74,0.00,,,0.36,,2013-10-23 21:22:00,
2013-10-23 18:54:00,44.0,37.0,29.55,NNE,18,2.0,3.0,77,0.00,,,0.36,,2013-10-23 21:54:00,
2013-10-23 19:24:00,43.0,37.0,29.57,NNE,18,2.0,3.0,80,0.00,,,0.36,,2013-10-23 22:24:00,
2013-10-23 19:54:00,42.0,37.0,29.57,NNE,18,1.0,3.0,82,0.00,,,0.36,,2013-10-23 22:54:00,
2013-10-23 20:22:00,41.0,37.0,29.57,NNE,18,1.0,2.0,85,0.00,,,0.36,,2013-10-23 23:22:00,
2013-10-23 20:53:00,41.0,37.0,29.55,NNE,18,3.0,5.0,85,0.00,,,0.36,,2013-10-23 23:53:00,
2013-10-23 21:22:00,40.0,36.0,29.56,NNE,19,0.0,3.0,87,0.00,,,0.36,,2013-10-24 00:22:00,
2013-10-23 21:52:00,40.0,37.0,29.55,NNE,19,2.0,3.0,88,0.00,,,0.36,,2013-10-24 00:52:00,
2013-10-23 22:22:00,40.0,37.0,29.54,NNE,19,0.0,1.0,90,0.00,,,0.36,,2013-10-24 01:22:00,
2013-10-23 22:52:00,40.0,37.0,29.51,NNE,19,0.0,2.0,90,0.00,,,0.36,,2013-10-24 01:52:00,
2013-10-23 23:12:00,39.0,37.0,29.50,NNE,19,0.0,2.0,91,0.00,,,0.36,,2013-10-24 02:12:00,
2013-10-23 23:22:00,39.0,37.0,29.50,NNE,19,0.0,0.0,93,0.00,,,0.36,,2013-10-24 02:22:00,